Regional Weather Roundup
Issued by NWS

Home | Current Version | Previous Version | Graphics & Text | Print | Product List | Glossary On
Versions: 1 2 3 4 5 6 7 8 9 10 11 12 13 14 15 16 17 18 19 20 21 22 23 24 25 26 27 28 29 30 31 32 33 34 35 36 37 38 39 40 41 42 43 44 45 46 47 48 49 50
000
ASUS43 KFSD 171402
RWRSD

WEATHER ROUNDUP FOR SOUTH DAKOTA
NATIONAL WEATHER SERVICE SIOUX FALLS SD
800 AM CST FRI NOV 17 2017

NOTE: "FAIR" INDICATES FEW OR NO CLOUDS BELOW 12,000 FEET WITH NO
SIGNIFICANT WEATHER AND/OR OBSTRUCTIONS TO VISIBILITY.


SDZ001>005-009-010-012>017-171500-
NORTHWEST AND NORTH CENTRAL SOUTH DAKOTA

CITY           SKY/WX    TMP DP  RH WIND       PRES   REMARKS
BUFFALO          N/A     35  31  85 S5        29.58F
FAITH            N/A     37  36  96 W7        29.68R
MOBRIDGE       CLOUDY    36  32  85 CALM      29.64R
$$

SDZ012>016-024>037-041>051-057-063-072>074-171500-
SOUTHWEST AND SOUTH CENTRAL SOUTH DAKOTA

CITY           SKY/WX    TMP DP  RH WIND       PRES   REMARKS
RAPID CTY ARPT CLOUDY    35  33  92 S5        29.65F
PIERRE         CLOUDY    38  31  76 NW9       29.64F
CUSTER         CLOUDY    32  30  92 S3        29.63F
ELLSWORTH AFB  MOCLDY    36  36 100 S7        29.63
PHILIP         CLOUDY    37  29  72 W3        29.69R
PINE RIDGE     CLOUDY    37  28  70 CALM      29.69R
SPEARFISH      CLOUDY    36  34  93 S6        29.66R
WINNER         FAIR      37  30  75 NW8       29.65R
$$

SDZ004>011-016>023-039-040-171500-
NORTHEAST SOUTH DAKOTA

CITY           SKY/WX    TMP DP  RH WIND       PRES   REMARKS
ABERDEEN       CLOUDY    33  29  85 E6        29.61F WCI  28
WATERTOWN      CLOUDY    34  31  88 S3        29.57F
BROOKINGS      CLOUDY    35  31  85 E3        29.59R
SISSETON         N/A     30  27  88 NW6       29.61R WCI  24
$$

SDZ017-020-022-023-036>040-048>070-171500-
SOUTHEAST SOUTH DAKOTA

CITY           SKY/WX    TMP DP  RH WIND       PRES   REMARKS
SIOUX FALLS    CLOUDY    44  39  82 S9        29.58S
HURON          CLOUDY    33  30  88 N13       29.60R WCI  24
CHAMBERLAIN    PTCLDY    42  33  70 NW9       29.62F
MITCHELL       PTCLDY    37  33  85 N9        29.56S
YANKTON        PTCLDY    45  42  89 S6        29.58S
$$

ABBREVIATIONS USED IN REMARKS
   TC - TEMPERATURE IN CELSIUS
  WCI - WIND CHILL INDEX
   HX - HEAT INDEX
  VSB - VISIBILITY





USA.gov is the U.S. government's official web portal to all federal, state and local government web resources and services.